When you browse on this site, cookies collect data to enhance your experience and personalize the content and advertising you see.
Visit our Privacy Policy to learn more. By continuing to use the site, you agree to this use of cookies and data.
  • In Österreich
  • Länderverzeichnis
  • Für 7 Tage
  • Wassertemperatur
  • Wetterkarte
  • News
  • Widgets
  • user-avatar
    Anmelden

    Stündliche Wetter Puerto Ayacucho

    Heute, 21 Januar, Dienstag

    Zeit Temperatur Niederschläge Wind Luftdruck Luftfeuchtigkeit
    00:00 +26°C° 1 mm 1 m/S 750 mmHg 90%
    01:00 +26°C° 1 mm 1 m/S 750 mmHg 92%
    02:00 +26°C° 0 mm 1 m/S 750 mmHg 92%
    03:00 +26°C° 0 mm 1 m/S 750 mmHg 92%
    04:00 +26°C° 0 mm 1 m/S 750 mmHg 92%
    05:00 +26°C° 0 mm 1 m/S 750 mmHg 90%
    06:00 +26°C° 0 mm 1 m/S 751 mmHg 89%
    07:00 +27°C° 0 mm 1 m/S 751 mmHg 88%
    08:00 +27°C° 0 mm 0 m/S 751 mmHg 79%
    09:00 +29°C° 0 mm 0 m/S 751 mmHg 70%
    10:00 +31°C° 0 mm 0 m/S 752 mmHg 61%
    11:00 +32°C° 0 mm 0 m/S 751 mmHg 57%
    12:00 +35°C° 0 mm 1 m/S 750 mmHg 53%
    13:00 +36°C° 0 mm 1 m/S 749 mmHg 49%
    14:00 +36°C° 0.1 mm 1 m/S 748 mmHg 50%
    15:00 +36°C° 0.1 mm 1 m/S 748 mmHg 51%
    16:00 +35°C° 0.1 mm 1 m/S 747 mmHg 52%
    17:00 +34°C° 0.2 mm 1 m/S 748 mmHg 57%
    18:00 +32°C° 0.2 mm 1 m/S 748 mmHg 63%
    19:00 +31°C° 0.2 mm 1 m/S 748 mmHg 69%
    20:00 +30°C° 0.2 mm 1 m/S 749 mmHg 71%
    21:00 +29°C° 0.2 mm 1 m/S 749 mmHg 74%
    22:00 +29°C° 0.2 mm 1 m/S 750 mmHg 77%
    23:00 +28°C° 0 mm 1 m/S 750 mmHg 78%

    Morgen, 22 Januar, Mittwoch

    Zeit Temperatur Niederschläge Wind Luftdruck Luftfeuchtigkeit
    00:00 +28°C° 0 mm 1 m/S 749 mmHg 80%
    01:00 +27°C° 0 mm 1 m/S 749 mmHg 81%
    02:00 +27°C° 0 mm 1 m/S 749 mmHg 83%
    03:00 +27°C° 0 mm 1 m/S 749 mmHg 85%
    04:00 +26°C° 0 mm 1 m/S 749 mmHg 87%
    05:00 +27°C° 0 mm 1 m/S 749 mmHg 86%
    06:00 +27°C° 0 mm 1 m/S 749 mmHg 85%
    07:00 +27°C° 0 mm 1 m/S 749 mmHg 84%
    08:00 +29°C° 0 mm 1 m/S 750 mmHg 75%
    09:00 +31°C° 0 mm 1 m/S 750 mmHg 66%
    10:00 +34°C° 0 mm 1 m/S 751 mmHg 57%
    11:00 +35°C° 0 mm 1 m/S 750 mmHg 53%
    12:00 +37°C° 0 mm 2 m/S 749 mmHg 49%
    13:00 +38°C° 0 mm 2 m/S 748 mmHg 45%
    14:00 +38°C° 0 mm 2 m/S 748 mmHg 45%
    15:00 +38°C° 0 mm 2 m/S 747 mmHg 44%
    16:00 +38°C° 0 mm 2 m/S 746 mmHg 44%
    17:00 +36°C° 0 mm 2 m/S 747 mmHg 48%
    18:00 +34°C° 0 mm 2 m/S 747 mmHg 51%
    19:00 +32°C° 0 mm 2 m/S 747 mmHg 55%
    20:00 +31°C° 0 mm 2 m/S 748 mmHg 58%
    21:00 +30°C° 0 mm 2 m/S 748 mmHg 60%
    22:00 +29°C° 0 mm 2 m/S 749 mmHg 63%
    23:00 +28°C° 0 mm 2 m/S 748 mmHg 65%

    übermorgen, 23 Januar, Donnerstag

    Zeit Temperatur Niederschläge Wind Luftdruck Luftfeuchtigkeit
    00:00 +28°C° 0 mm 2 m/S 748 mmHg 68%
    01:00 +27°C° 0 mm 2 m/S 748 mmHg 70%
    02:00 +27°C° 0 mm 1 m/S 748 mmHg 73%
    03:00 +27°C° 0 mm 1 m/S 748 mmHg 75%
    04:00 +26°C° 0 mm 1 m/S 747 mmHg 78%
    05:00 +27°C° 0 mm 1 m/S 748 mmHg 77%
    06:00 +27°C° 0 mm 1 m/S 749 mmHg 75%
    07:00 +28°C° 0 mm 2 m/S 749 mmHg 73%
    08:00 +30°C° 0 mm 2 m/S 750 mmHg 65%
    09:00 +32°C° 0 mm 2 m/S 750 mmHg 58%
    10:00 +36°C° 0 mm 2 m/S 750 mmHg 50%
    11:00 +37°C° 0 mm 2 m/S 750 mmHg 44%
    12:00 +38°C° 0 mm 2 m/S 749 mmHg 39%
    13:00 +39°C° 0 mm 3 m/S 748 mmHg 34%
    14:00 +38°C° 0 mm 3 m/S 748 mmHg 36%
    15:00 +37°C° 0 mm 4 m/S 747 mmHg 37%
    16:00 +37°C° 0 mm 5 m/S 747 mmHg 39%
    17:00 +35°C° 0 mm 4 m/S 747 mmHg 42%
    18:00 +33°C° 0 mm 3 m/S 747 mmHg 46%
    19:00 +31°C° 0 mm 2 m/S 748 mmHg 49%
    20:00 +30°C° 0 mm 2 m/S 748 mmHg 51%
    21:00 +30°C° 0 mm 3 m/S 748 mmHg 52%
    22:00 +29°C° 0 mm 3 m/S 749 mmHg 54%
    23:00 +28°C° 0 mm 3 m/S 749 mmHg 57%

    24 Januar, Freitag

    Zeit Temperatur Niederschläge Wind Luftdruck Luftfeuchtigkeit
    00:00 +27°C° 0 mm 2 m/S 748 mmHg 60%
    01:00 +27°C° 0 mm 2 m/S 748 mmHg 63%
    02:00 +26°C° 0 mm 2 m/S 748 mmHg 64%
    03:00 +26°C° 0 mm 2 m/S 748 mmHg 66%
    04:00 +25°C° 0 mm 2 m/S 748 mmHg 67%
    05:00 +26°C° 0 mm 2 m/S 749 mmHg 67%
    06:00 +26°C° 0 mm 2 m/S 750 mmHg 66%
    07:00 +27°C° 0 mm 3 m/S 750 mmHg 66%
    08:00 +29°C° 0 mm 3 m/S 751 mmHg 58%
    09:00 +33°C° 0 mm 3 m/S 751 mmHg 51%
    10:00 +35°C° 0 mm 3 m/S 751 mmHg 44%
    11:00 +36°C° 0 mm 4 m/S 751 mmHg 40%
    12:00 +38°C° 0 mm 4 m/S 750 mmHg 36%
    13:00 +40°C° 0 mm 4 m/S 749 mmHg 33%
    14:00 +38°C° 0 mm 4 m/S 748 mmHg 34%
    15:00 +38°C° 0 mm 4 m/S 748 mmHg 35%
    16:00 +38°C° 0 mm 4 m/S 747 mmHg 36%
    17:00 +36°C° 0 mm 4 m/S 748 mmHg 38%
    18:00 +34°C° 0 mm 3 m/S 748 mmHg 41%
    19:00 +31°C° 0 mm 3 m/S 749 mmHg 43%
    20:00 +30°C° 0 mm 3 m/S 749 mmHg 45%
    21:00 +29°C° 0 mm 3 m/S 750 mmHg 46%
    22:00 +29°C° 0 mm 3 m/S 750 mmHg 48%
    23:00 +28°C° 0 mm 3 m/S 750 mmHg 52%

    25 Januar, Samstag

    Zeit Temperatur Niederschläge Wind Luftdruck Luftfeuchtigkeit
    00:00 +27°C° 0 mm 2 m/S 750 mmHg 56%
    01:00 +26°C° 0 mm 2 m/S 749 mmHg 60%
    02:00 +26°C° 0 mm 3 m/S 749 mmHg 62%
    03:00 +26°C° 0 mm 3 m/S 749 mmHg 63%
    04:00 +25°C° 0 mm 3 m/S 749 mmHg 65%
    05:00 +26°C° 0 mm 4 m/S 750 mmHg 65%
    06:00 +26°C° 0 mm 4 m/S 751 mmHg 66%
    07:00 +26°C° 0 mm 4 m/S 752 mmHg 67%
    08:00 +28°C° 0 mm 4 m/S 752 mmHg 60%
    09:00 +32°C° 0 mm 4 m/S 752 mmHg 53%
    10:00 +34°C° 0 mm 4 m/S 752 mmHg 47%
    11:00 +35°C° 0 mm 4 m/S 751 mmHg 43%
    12:00 +37°C° 0 mm 3 m/S 751 mmHg 39%
    13:00 +38°C° 0 mm 3 m/S 750 mmHg 35%
    14:00 +38°C° 0 mm 3 m/S 749 mmHg 36%
    15:00 +38°C° 0 mm 3 m/S 749 mmHg 36%
    16:00 +38°C° 0 mm 2 m/S 748 mmHg 36%
    17:00 +36°C° 0 mm 2 m/S 749 mmHg 40%
    18:00 +34°C° 0 mm 2 m/S 749 mmHg 44%
    19:00 +31°C° 0 mm 2 m/S 750 mmHg 48%
    20:00 +30°C° 0 mm 2 m/S 750 mmHg 51%
    21:00 +29°C° 0 mm 2 m/S 750 mmHg 54%
    22:00 +28°C° 0 mm 2 m/S 751 mmHg 58%
    23:00 +28°C° 0 mm 2 m/S 750 mmHg 60%

    26 Januar, Sonntag

    Zeit Temperatur Niederschläge Wind Luftdruck Luftfeuchtigkeit
    00:00 +27°C° 0 mm 2 m/S 750 mmHg 63%
    01:00 +26°C° 0 mm 2 m/S 750 mmHg 65%
    02:00 +26°C° 0 mm 2 m/S 750 mmHg 66%
    03:00 +26°C° 0 mm 2 m/S 750 mmHg 67%
    04:00 +25°C° 0 mm 3 m/S 750 mmHg 68%
    05:00 +26°C° 0 mm 3 m/S 750 mmHg 68%
    06:00 +26°C° 0 mm 3 m/S 751 mmHg 68%
    07:00 +26°C° 0 mm 3 m/S 752 mmHg 68%
    08:00 +28°C° 0 mm 3 m/S 752 mmHg 61%
    09:00 +31°C° 0 mm 3 m/S 752 mmHg 53%
    10:00 +34°C° 0 mm 2 m/S 752 mmHg 46%
    11:00 +35°C° 0 mm 2 m/S 751 mmHg 43%
    12:00 +36°C° 0 mm 2 m/S 751 mmHg 41%
    13:00 +37°C° 0 mm 2 m/S 750 mmHg 38%
    14:00 +37°C° 0 mm 2 m/S 749 mmHg 38%
    15:00 +37°C° 0 mm 2 m/S 749 mmHg 39%
    16:00 +37°C° 0 mm 2 m/S 748 mmHg 39%
    17:00 +35°C° 0 mm 2 m/S 749 mmHg 42%
    18:00 +32°C° 0 mm 2 m/S 749 mmHg 46%
    19:00 +31°C° 0 mm 2 m/S 749 mmHg 49%
    20:00 +30°C° 0 mm 2 m/S 750 mmHg 51%
    21:00 +29°C° 0 mm 2 m/S 750 mmHg 54%
    22:00 +28°C° 0 mm 2 m/S 750 mmHg 57%
    23:00 +28°C° 0 mm 2 m/S 750 mmHg 59%
    Mehr zeigen